Location: Chapel Hill
(35.9134°N, 79.0560°W)
Time: 10:47:04
(UTC-04:00)

ACS3 Solar Sail - Pass Details

Date: 24 June 2024
Orbit: 992 x 1023 km, 97.4° (Epoch: 12 July)

Event Time Altitude Azimuth Distance (km) Brightness Sun altitude
Exits shadow 23:41:16 26° 225° (SW) 1,840 6.0 -26.4°
Maximum altitude 23:43:37 34° 265° (W) 1,569 6.0 -26.6°
Drops below altitude 10° 23:49:13 10° 329° (NNW) 2,763 8.1 -27.0°
Sets 23:51:57 0° 338° (NNW) 3,714 9.1 -27.2°
